User: anonymous   Login
Location: Brookview Estates
(36.0476°N, 86.6931°W)
Time: 13:45:54
(UTC+00:00)
Language:

Cosmos 1420 Rocket - Orbit

View from above orbital plane
View from above orbital plane
View from above satellite
View from above satellite

Ground track
Ground track

The orbit data is extracted from the following two-line orbital elements,

1 13649U 82109B   20192.12819420  .00000006  00000-0  11053-4 0  9994
2 13649  74.0005 109.6928 0018405   0.3224 100.3925 14.37178414972362
Epoch (UTC): 10 July 2020 03:04:35
Eccentricity: 0.0018405
inclination: 74.0005°
perigee height: 754 km
apogee height: 781 km
right ascension of ascending node: 109.6928°
argument of perigee: 0.3224°
revolutions per day: 14.37178414
mean anomaly at epoch: 100.3925°
orbit number at epoch: 97236

The dashed part of the orbit path shows where the satellite is in the earth's shadow,  

DLR